| time (UTC) | temp C | wind direction | speed KPH | gust KPH | rain 1hr cm | rain 24hr cm | rain mn cm | humidity % | barometer mb |
| 20260509145355 | 29 | 192 | 19.3 | 24.1 | 0.00 | 0.00 | 0.00 | 62 | 1013.6 |
| 20260509144330 | 28 | 200 | 14.5 | 20.9 | 0.00 | 0.00 | 0.00 | 64 | 1013.5 |
| 20260509143332 | 28 | 187 | 12.9 | 19.3 | 0.00 | 0.00 | 0.00 | 67 | 1013.4 |
| 20260509141208 | 28 | 196 | 11.3 | 16.1 | 0.00 | 0.00 | 0.00 | 71 | 1013.4 |
| 20260509140158 | 27 | 197 | 6.4 | 14.5 | 0.00 | 0.00 | 0.00 | 76 | 1013.4 |
| 20260509135206 | 26 | 178 | 4.8 | 11.3 | 0.00 | 0.00 | 0.00 | 79 | 1013.5 |
| 20260509134218 | 26 | 178 | 4.8 | 11.3 | 0.00 | 0.00 | 0.00 | 81 | 1013.6 |
| 20260509133227 | 26 | 148 | 3.2 | 8.0 | 0.00 | 0.00 | 0.00 | 82 | 1013.6 |
| 20260509131115 | 25 | 161 | 3.2 | 8.0 | 0.00 | 0.00 | 0.00 | 84 | 1013.7 |
| 20260509130131 | 25 | 194 | 4.8 | 8.0 | 0.00 | 0.00 | 0.00 | 84 | 1013.4 |
| 20260509125140 | 25 | 169 | 6.4 | 9.7 | 0.00 | 0.00 | 0.00 | 85 | 1013.4 |
| 20260509124117 | 25 | 167 | 6.4 | 11.3 | 0.00 | 0.00 | 0.00 | 85 | 1013.2 |
| 20260509123052 | 24 | 193 | 9.7 | 14.5 | 0.00 | 0.00 | 0.00 | 86 | 1013.1 |
| 20260509122053 | 24 | 193 | 11.3 | 14.5 | 0.00 | 0.00 | 0.00 | 86 | 1013.1 |
| 20260509121114 | 24 | 195 | 12.9 | 16.1 | 0.00 | 0.00 | 0.00 | 86 | 1013.1 |
| 20260509113920 | 24 | 198 | 11.3 | 14.5 | 0.00 | 0.00 | 0.00 | 86 | 1013.1 |
| 20260509112903 | 24 | 209 | 11.3 | 14.5 | 0.00 | 0.00 | 0.00 | 86 | 1013.1 |
| 20260509110752 | 24 | 207 | 8.0 | 11.3 | 0.00 | 0.00 | 0.00 | 86 | 1012.9 |
| 20260509105757 | 24 | 207 | 4.8 | 9.7 | 0.00 | 0.00 | 0.00 | 86 | 1012.9 |
| 20260509104813 | 24 | 237 | 6.4 | 8.0 | 0.00 | 0.00 | 0.00 | 86 | 1012.9 |
| 20260509103831 | 25 | 233 | 8.0 | 12.9 | 0.00 | 0.00 | 0.00 | 86 | 1012.6 |
| 20260509102823 | 25 | 198 | 11.3 | 16.1 | 0.00 | 0.00 | 0.00 | 86 | 1012.5 |
| 20260509101838 | 25 | 180 | 12.9 | 17.7 | 0.00 | 0.00 | 0.00 | 85 | 1012.5 |
| 20260509100854 | 25 | 178 | 12.9 | 19.3 | 0.00 | 0.00 | 0.00 | 85 | 1012.3 |
| 20260509095841 | 25 | 192 | 12.9 | 19.3 | 0.00 | 0.00 | 0.00 | 85 | 1012.3 |
| 20260509094822 | 25 | 140 | 12.9 | 17.7 | 0.00 | 0.00 | 0.00 | 84 | 1012.3 |
| 20260509093817 | 25 | 155 | 11.3 | 17.7 | 0.00 | 0.00 | 0.00 | 84 | 1012.3 |
| 20260509092751 | 25 | 160 | 9.7 | 16.1 | 0.00 | 0.00 | 0.00 | 84 | 1012.2 |
| 20260509090602 | 25 | 160 | 8.0 | 14.5 | 0.00 | 0.00 | 0.00 | 83 | 1012.3 |
| 20260509085537 | 25 | 161 | 8.0 | 14.5 | 0.00 | 0.00 | 0.00 | 83 | 1012.3 |
| 20260509084547 | 25 | 178 | 9.7 | 14.5 | 0.00 | 0.00 | 0.00 | 82 | 1012.5 |
| 20260509083516 | 25 | 184 | 8.0 | 11.3 | 0.00 | 0.00 | 0.00 | 82 | 1012.5 |
| 20260509082442 | 26 | 172 | 8.0 | 11.3 | 0.00 | 0.00 | 0.00 | 82 | 1012.5 |
| 20260509080345 | 26 | 176 | 4.8 | 8.0 | 0.00 | 0.00 | 0.00 | 82 | 1012.5 |
| 20260509075333 | 26 | 170 | 3.2 | 8.0 | 0.00 | 0.00 | 0.00 | 81 | 1012.6 |
| 20260509074349 | 26 | 190 | 4.8 | 8.0 | 0.00 | 0.00 | 0.00 | 81 | 1012.6 |
| 20260509073338 | 26 | 196 | 6.4 | 9.7 | 0.00 | 0.00 | 0.00 | 81 | 1012.6 |
| 20260509072310 | 26 | 201 | 6.4 | 9.7 | 0.00 | 0.00 | 0.00 | 80 | 1012.7 |
| 20260509071321 | 26 | 205 | 4.8 | 6.4 | 0.00 | 0.00 | 0.00 | 80 | 1012.9 |
| 20260509070247 | 26 | 191 | 1.6 | 4.8 | 0.00 | 0.00 | 0.00 | 80 | 1013.0 |
| 20260509065306 | 26 | 208 | 1.6 | 4.8 | 0.00 | 0.00 | 0.00 | 80 | 1013.1 |
| 20260509063116 | 26 | 243 | 3.2 | 8.0 | 0.00 | 0.00 | 0.00 | 81 | 1013.3 |
| 20260509060934 | 26 | 267 | 6.4 | 12.9 | 0.00 | 0.00 | 0.00 | 81 | 1013.5 |
| 20260509055943 | 26 | 288 | 8.0 | 12.9 | 0.00 | 0.00 | 0.00 | 81 | 1013.5 |
| 20260509054919 | 25 | 309 | 4.8 | 11.3 | 0.00 | 0.00 | 0.00 | 82 | 1013.6 |
| 20260509050523 | 26 | 269 | 11.3 | 24.1 | 0.00 | 0.00 | 0.00 | 82 | 1014.0 |
| 20260509045530 | 26 | 291 | 16.1 | 24.1 | 0.00 | 0.00 | 0.00 | 82 | 1014.2 |
| 20260509044518 | 26 | 295 | 14.5 | 19.3 | 0.00 | 0.00 | 0.00 | 81 | 1014.1 |
| 20260509043455 | 26 | 277 | 12.9 | 24.1 | 0.00 | 0.00 | 0.00 | 81 | 1014.1 |
| 20260509041419 | 26 | 198 | 11.3 | 17.7 | 0.00 | 0.00 | 0.00 | 81 | 1013.6 |
| 20260509040404 | 26 | 184 | 14.5 | 19.3 | 0.00 | 0.00 | 0.00 | 81 | 1013.4 |
| 20260509034301 | 26 | 170 | 12.9 | 17.7 | 0.00 | 0.00 | 0.00 | 82 | 1013.3 |
| 20260509033311 | 27 | 202 | 12.9 | 17.7 | 0.00 | 0.00 | 0.00 | 81 | 1013.3 |
| 20260509032307 | 27 | 175 | 12.9 | 20.9 | 0.00 | 0.00 | 0.00 | 81 | 1013.4 |
| 20260509031242 | 27 | 155 | 11.3 | 22.5 | 0.00 | 0.00 | 0.00 | 82 | 1013.5 |
| 20260509030254 | 27 | 153 | 16.1 | 24.1 | 0.00 | 0.00 | 0.00 | 81 | 1013.5 |
| 20260509025315 | 27 | 170 | 14.5 | 24.1 | 0.00 | 0.00 | 0.00 | 82 | 1013.4 |
| 20260509023205 | 26 | 129 | 14.5 | 22.5 | 0.00 | 0.00 | 0.00 | 83 | 1013.4 |
| 20260509022214 | 26 | 129 | 12.9 | 22.5 | 0.00 | 0.00 | 0.00 | 83 | 1013.2 |
| 20260509021204 | 26 | 146 | 11.3 | 19.3 | 0.00 | 0.00 | 0.00 | 83 | 1013.3 |
| 20260509020142 | 26 | 147 | 11.3 | 19.3 | 0.00 | 0.00 | 0.00 | 83 | 1013.3 |
| 20260509015149 | 26 | 132 | 8.0 | 17.7 | 0.00 | 0.00 | 0.00 | 83 | 1013.3 |
| 20260509014151 | 26 | 128 | 8.0 | 17.7 | 0.00 | 0.00 | 0.00 | 83 | 1013.2 |
| 20260509013133 | 26 | 152 | 9.7 | 17.7 | 0.00 | 0.00 | 0.00 | 83 | 1013.1 |
| 20260509012104 | 26 | 146 | 12.9 | 20.9 | 0.00 | 0.00 | 0.00 | 82 | 1012.9 |
| 20260509005932 | 26 | 127 | 9.7 | 20.9 | 0.00 | 0.00 | 0.00 | 82 | 1012.8 |
| 20260509003826 | 26 | 133 | 11.3 | 19.3 | 0.00 | 0.00 | 0.00 | 82 | 1012.8 |
| 20260509002813 | 26 | 132 | 11.3 | 22.5 | 0.00 | 0.00 | 0.00 | 81 | 1012.8 |
| 20260509001826 | 26 | 132 | 12.9 | 24.1 | 0.00 | 0.00 | 0.00 | 81 | 1012.6 |
| 20260509000800 | 26 | 132 | 11.3 | 24.1 | 0.00 | 0.00 | 0.00 | 81 | 1012.5 |
| 20260508235802 | 27 | 150 | 12.9 | 24.1 | 0.00 | 0.00 | 0.00 | 80 | 1012.3 |
| 20260508234817 | 27 | 148 | 11.3 | 22.5 | 0.00 | 0.00 | 0.00 | 79 | 1012.2 |
| 20260508233742 | 27 | 146 | 11.3 | 22.5 | 0.00 | 0.00 | 0.00 | 79 | 1012.0 |
| 20260508232718 | 27 | 143 | 12.9 | 22.5 | 0.00 | 0.00 | 0.00 | 79 | 1011.8 |
| 20260508231718 | 27 | 144 | 11.3 | 22.5 | 0.00 | 0.00 | 0.00 | 79 | 1011.9 |
| 20260508225510 | 27 | 153 | 12.9 | 24.1 | 0.00 | 0.00 | 0.00 | 77 | 1011.8 |
| 20260508224436 | 27 | 129 | 11.3 | 24.1 | 0.00 | 0.00 | 0.00 | 77 | 1011.8 |
| 20260508223429 | 27 | 128 | 9.7 | 20.9 | 0.00 | 0.00 | 0.00 | 78 | 1011.7 |
| 20260508222412 | 27 | 150 | 9.7 | 20.9 | 0.00 | 0.00 | 0.00 | 77 | 1011.6 |
| 20260508220312 | 27 | 134 | 11.3 | 20.9 | 0.00 | 0.00 | 0.00 | 78 | 1011.7 |
| 20260508215243 | 27 | 109 | 12.9 | 24.1 | 0.00 | 0.00 | 0.00 | 78 | 1011.7 |
| 20260508214247 | 27 | 131 | 12.9 | 24.1 | 0.00 | 0.00 | 0.00 | 78 | 1011.7 |
| 20260508213220 | 27 | 131 | 12.9 | 22.5 | 0.00 | 0.00 | 0.00 | 77 | 1011.8 |
| 20260508212146 | 27 | 111 | 11.3 | 20.9 | 0.00 | 0.00 | 0.00 | 77 | 1012.1 |
| 20260508211121 | 27 | 122 | 12.9 | 19.3 | 0.00 | 0.00 | 0.00 | 78 | 1012.1 |
| 20260508210045 | 27 | 126 | 12.9 | 22.5 | 0.00 | 0.00 | 0.00 | 78 | 1012.1 |
| 20260508205022 | 27 | 116 | 12.9 | 22.5 | 0.00 | 0.00 | 0.00 | 78 | 1012.1 |
| 20260508204041 | 27 | 103 | 11.3 | 22.5 | 0.00 | 0.00 | 0.00 | 77 | 1012.1 |
| 20260508203029 | 27 | 109 | 9.7 | 19.3 | 0.00 | 0.00 | 0.00 | 77 | 1012.3 |
| 20260508202033 | 27 | 86 | 9.7 | 19.3 | 0.00 | 0.00 | 0.00 | 76 | 1012.3 |
| 20260508201039 | 27 | 123 | 11.3 | 19.3 | 0.00 | 0.00 | 0.00 | 76 | 1012.4 |
| 20260508200045 | 27 | 119 | 11.3 | 19.3 | 0.00 | 0.00 | 0.00 | 77 | 1012.6 |
| 20260508195033 | 28 | 119 | 9.7 | 19.3 | 0.00 | 0.00 | 0.00 | 77 | 1012.7 |
| 20260508194027 | 27 | 125 | 9.7 | 19.3 | 0.00 | 0.00 | 0.00 | 76 | 1012.9 |
| 20260508193026 | 27 | 86 | 12.9 | 22.5 | 0.00 | 0.00 | 0.00 | 76 | 1013.2 |
| 20260508191956 | 27 | 111 | 11.3 | 22.5 | 0.00 | 0.00 | 0.00 | 76 | 1013.3 |
| 20260508191012 | 27 | 84 | 11.3 | 19.3 | 0.00 | 0.00 | 0.00 | 76 | 1013.4 |
| 20260508190019 | 28 | 110 | 9.7 | 20.9 | 0.00 | 0.00 | 0.00 | 75 | 1013.7 |
| 20260508185010 | 28 | 89 | 11.3 | 20.9 | 0.00 | 0.00 | 0.00 | 76 | 1013.6 |
| 20260508183938 | 28 | 101 | 11.3 | 24.1 | 0.00 | 0.00 | 0.00 | 75 | 1013.7 |
| 20260508181737 | 28 | 78 | 8.0 | 20.9 | 0.00 | 0.00 | 0.00 | 74 | 1013.9 |
| 20260508180713 | 28 | 119 | 8.0 | 20.9 | 0.00 | 0.00 | 0.00 | 73 | 1013.9 |
| 20260508175713 | 28 | 103 | 8.0 | 19.3 | 0.00 | 0.00 | 0.00 | 73 | 1014.0 |
| 20260508173629 | 28 | 69 | 9.7 | 17.7 | 0.00 | 0.00 | 0.00 | 73 | 1014.2 |
| 20260508172552 | 28 | 103 | 8.0 | 17.7 | 0.00 | 0.00 | 0.00 | 73 | 1014.3 |
| 20260508171531 | 28 | 92 | 8.0 | 17.7 | 0.00 | 0.00 | 0.00 | 74 | 1014.3 |
| 20260508170523 | 28 | 57 | 9.7 | 17.7 | 0.00 | 0.00 | 0.00 | 72 | 1014.5 |
| 20260508165507 | 28 | 47 | 6.4 | 14.5 | 0.00 | 0.00 | 0.00 | 72 | 1014.7 |
| 20260508164438 | 28 | 82 | 8.0 | 16.1 | 0.00 | 0.00 | 0.00 | 75 | 1014.9 |
| 20260508163405 | 28 | 73 | 8.0 | 14.5 | 0.00 | 0.00 | 0.00 | 75 | 1015.0 |
| 20260508162349 | 27 | 94 | 8.0 | 14.5 | 0.00 | 0.00 | 0.00 | 75 | 1015.1 |
| 20260508161324 | 28 | 57 | 6.4 | 14.5 | 0.00 | 0.00 | 0.00 | 75 | 1015.2 |
| 20260508160312 | 28 | 33 | 8.0 | 14.5 | 0.00 | 0.00 | 0.00 | 73 | 1015.4 |
| 20260508154201 | 28 | 17 | 6.4 | 14.5 | 0.00 | 0.00 | 0.00 | 72 | 1015.5 |
| 20260508153205 | 27 | 311 | 6.4 | 9.7 | 0.00 | 0.00 | 0.00 | 72 | 1015.6 |
| 20260508152148 | 27 | 300 | 4.8 | 11.3 | 0.00 | 0.00 | 0.00 | 73 | 1015.6 |
| 20260508151122 | 27 | 322 | 6.4 | 11.3 | 0.00 | 0.00 | 0.00 | 74 | 1015.6 |
| 20260508150133 | 27 | 309 | 6.4 | 11.3 | 0.00 | 0.00 | 0.00 | 74 | 1015.6 |